Location: ????????
(56.1167°N, 38.6333°E)
Time: 09:10:57
(UTC+00:00)

CZ-4C R/B - Pass Details

Date: 18 November 2025
Orbit: 487 x 1493 km, 63.4° (Epoch: 14 December)

Event Time Altitude Azimuth Distance (km) Brightness Sun altitude
Rises 15:11:39 0° 262° (W) 2,984 6.9 -16.1°
Reaches altitude 10° 15:13:47 10° 268° (W) 2,190 5.7 -16.4°
Maximum altitude 15:18:40 49° 344° (NNW) 1,087 2.8 -17.1°
Enters shadow 15:22:30 22° 49° (NE) 1,961 3.6 -17.6°
